Weather in Banfora

Burkina Faso     10°38′49″N   4°45′13″W
temp.,
°C
wind,
m/s
gust,
m/s
humid.,
%
clouds,
%
prec.,
mm/h
press.,
hPa
HPBL,
m
16 june, wed
wed1600:00+24wsw117794 1.1 101364
03:00+22ssw399195 1.1 1013348
06:00+22w389310 1.1 1013317
09:00+28sw24645 0.0 1014607
12:00+33sw3441100 0.0 10121533
15:00+35ssw3335100 0.0 10102248
18:00+32se134475 0.1 1009106
21:00+25wnw247295 0.8 101294
17 june, thu
thu1700:00+24nnw2277100 2.0 101334
03:00+24s378490 0.1 1012255
06:00+23ssw268835 0.1 1013249
09:00+27ssw586791 0.0 1013649
12:00+34ssw334235 0.0 10121459
15:00+35s223591 0.0 10102239
18:00+29nw4758100 0.2 1009254
21:00+22n61391100 6.3 1015501
18 june, fri
fri1800:00+24sse1181100 8.0 101457
03:00+23sw2485100 0.3 1012121
06:00+23ssw3887100 0.3 1013323
09:00+26ssw3572100 0.0 1014531
12:00+31ssw3350100 0.0 10131194
15:00+34sw234269 0.0 10111950
18:00+31w235091 0.0 101070
21:00+23sw3490100 9.2 1013174
19 june, sat
sat1900:00+22sw1587100 14.8 1014147
03:00+23ssw1186100 3.2 101353
06:00+22sw1290100 3.7 101491
09:00+26ssw247449 0.0 1015506
12:00+31s22535 0.0 10131048
15:00+34s124377 0.0 10111694
18:00+31sse225384 0.1 101085
21:00+26wsw128199 2.4 101384
20 june, sun
sun2000:00+25w138543 2.5 101386
03:00+24sw12887 0.1 101380
06:00+23ssw269250 0.1 1014235
09:00+25sw357742 0.0 1015516
12:00+31sw335276 0.0 10131132
15:00+34sw124418 0.0 10101816
18:00+32wsw125278 0.0 100947
21:00+26n2480100 1.4 1011148